Other Public Products
Issued by NWS Charleston, SC

Current Version | Previous Version | Graphics & Text | Print | Product List | Glossary On
Versions: 1 2 3 4 5 6 7 8 9 10 11 12 13 14 15 16 17 18 19 20 21 22 23 24 25 26 27 28 29 30 31 32 33 34 35 36 37 38 39 40 41 42 43 44 45 46 47 48 49 50
000
FPUS82 KCHS 251811
OPUCHS

TEST...KCHS/KSAV Gateway Observations...TEST
National Weather Service Charleston SC
100 PM EST SAT FEB 25 2017

NOTE: "fair" indicates few or no clouds below 12,000 feet with no
significant weather and/or obstructions to visibility.

SCZ050-WAZ558-NCZ071-TXZ119-213-PAZ071-DCZ001-FLZ074-172-MI076-
NYZ176-178-MAZ016-IL014-TNZ027-NJZ106-GAZ044-MD014-251900-
...Gateway Observations for Charleston International...

CITY           SKY/WX    TMP DP  RH WIND       PRES   REMARKS
Chas Airport   MOSUNNY   80  55  42 SW18      29.75F
6HR MIN TEMP:  57; 6HR MAX TEMP:  81;

Seattle        PTSUNNY   37  31  78 CALM      30.25S
6HR MIN TEMP:  32; 6HR MAX TEMP:  37;

Charlotte      PTSUNNY   76  51  41 SW20G29   29.66F
6HR MIN TEMP:  60; 6HR MAX TEMP:  76;

Dallas DFW     SUNNY     46  23  40 N12       30.26F
6HR MIN TEMP:  35; 6HR MAX TEMP:  48;

Dallas Love    MOSUNNY   47  22  37 VRB6      30.28F
6HR MIN TEMP:  36; 6HR MAX TEMP:  47;

Philladelphia  PTSUNNY   71  56  58 S10G20    29.58F
6HR MIN TEMP:  56; 6HR MAX TEMP:  71;

Wash National  PTSUNNY   70  57  63 S17       29.51F
6HR MIN TEMP:  59; 6HR MAX TEMP:  75;

Baltimore      PTSUNNY   74  57  55 SE10G24   29.51F
6HR MIN TEMP:  53; 6HR MAX TEMP:  75;

Miami          MOSUNNY   82  64  54 CALM      29.91F
6HR MIN TEMP:  65; 6HR MAX TEMP:  83;

Detroit        CLOUDY    34  22  61 W25G33    29.66R WCI  21
6HR MIN TEMP:  34; 6HR MAX TEMP:  40; 6HR PCP: TRACE;

Newark         PTSUNNY   65  54  67 SE12G20   29.61F
6HR MIN TEMP:  49; 6HR MAX TEMP:  65;

Laguardia      PTSUNNY   62  54  74 S13       29.64F
6HR MIN TEMP:  51; 6HR MAX TEMP:  63;

J F K          PTSUNNY   60  55  83 SE21      29.66F
6HR MIN TEMP:  48; 6HR MAX TEMP:  60;

Boston Logan   PTSUNNY   67  54  63 S17G23    29.69F
6HR MIN TEMP:  51; 6HR MAX TEMP:  69;

Ft. Lauderdale SUNNY     82  64  54 S5        29.90F
6HR MIN TEMP:  66; 6HR MAX TEMP:  83;

Chicago O`Hare FLURRIES  25  14  63 W20G28    29.85R WCI  11
6HR MIN TEMP:  23; 6HR MAX TEMP:  26; 6HR PCP: TRACE;

Chicago Midway LGT SNOW  25  15  66 W14       29.86R WCI  13
6HR MIN TEMP:  23; 6HR MAX TEMP:  26; 6HR PCP: TRACE;

Houston Bush   SUNNY     64  29  26 VRB7      30.16F
6HR MIN TEMP:  47; 6HR MAX TEMP:  64;

Houston Hobby  SUNNY     63  29  27 N13       30.14F
6HR MIN TEMP:  50; 6HR MAX TEMP:  63;

Nashville      MOSUNNY   45  18  34 NW16G23   30.03R
6HR MIN TEMP:  41; 6HR MAX TEMP:  46;

Atlanta        MOSUNNY   65  21  18 W22G28    29.89R
6HR MIN TEMP:  57; 6HR MAX TEMP:  65; 6HR PCP: TRACE;


$$

GAZ044-118-TXZ119-213-NCZ071-DCZ001-MDZ014-506-PAZ021-071-NJZ106-
NYZ176-178-MAZ106-OHZ011-021-055-MIZ076-KYZ091-ILZ014-INZ047-
MNZ060-ONZ431-251900-
...Gateway Observations for Savannah International...

CITY           SKY/WX    TMP DP  RH WIND       PRES   REMARKS
Savannah Arpt  MOSUNNY   77  58  51 W20G26    29.80F
6HR MIN TEMP:  62; 6HR MAX TEMP:  80;

Atlanta        MOSUNNY   65  21  18 W22G28    29.89R
6HR MIN TEMP:  57; 6HR MAX TEMP:  65; 6HR PCP: TRACE;

Charlotte      PTSUNNY   76  51  41 SW20G29   29.66F
6HR MIN TEMP:  60; 6HR MAX TEMP:  76;

Dallas DFW     SUNNY     46  23  40 N12       30.26F
6HR MIN TEMP:  35; 6HR MAX TEMP:  48;

Houston Bush   SUNNY     64  29  26 VRB7      30.16F
6HR MIN TEMP:  47; 6HR MAX TEMP:  64;

Wash National  PTSUNNY   70  57  63 S17       29.51F
6HR MIN TEMP:  59; 6HR MAX TEMP:  75;

Wash Dulles    PTSUNNY   75  55  49 S22G35    29.48F
6HR MIN TEMP:  59; 6HR MAX TEMP:  75;

Baltimore      PTSUNNY   74  57  55 SE10G24   29.51F
6HR MIN TEMP:  53; 6HR MAX TEMP:  75;

Philadelphia   PTSUNNY   71  56  58 S10G20    29.58F
6HR MIN TEMP:  56; 6HR MAX TEMP:  71;

Newark         PTSUNNY   65  54  67 SE12G20   29.61F
6HR MIN TEMP:  49; 6HR MAX TEMP:  65;

Laguardia      PTSUNNY   62  54  74 S13       29.64F
6HR MIN TEMP:  51; 6HR MAX TEMP:  63;

J F K          PTSUNNY   60  55  83 SE21      29.66F
6HR MIN TEMP:  48; 6HR MAX TEMP:  60;

Boston         PTSUNNY   67  54  63 S17G23    29.69F
6HR MIN TEMP:  51; 6HR MAX TEMP:  69;

Pittsburg      CLOUDY    50  32  50 SW18G31   29.62R
6HR MIN TEMP:  46; 6HR MAX TEMP:  56; 6HR PCP:  0.09;

Akron          CLOUDY    41  26  55 W22G31    29.65R
6HR MIN TEMP:  41; 6HR MAX TEMP:  46; 6HR PCP: TRACE;

Cleveland      CLOUDY    40  28  62 W20G26    29.68R WCI  30
6HR MIN TEMP:  39; 6HR MAX TEMP:  46;

Cincinnati     CLOUDY    31  22  69 W18G29    29.89R WCI  19
6HR MIN TEMP:  31; 6HR MAX TEMP:  42; 6HR PCP: TRACE;

Columbus       FLURRIES  36  29  78 W24G31    29.80R WCI  24
Detroit        CLOUDY    34  22  61 W25G33    29.66R WCI  21
6HR MIN TEMP:  34; 6HR MAX TEMP:  40; 6HR PCP: TRACE;

Chicago O`Hare FLURRIES  25  14  63 W20G28    29.85R WCI  11
6HR MIN TEMP:  23; 6HR MAX TEMP:  26; 6HR PCP: TRACE;

Minneapolis    SUNNY     28   5  37 NW15G21   29.94S WCI  16
6HR MIN TEMP:  14; 6HR MAX TEMP:  28;

Indianapolis   FLURRIES  28  17  63 W25G33    29.92R WCI  13
6HR MIN TEMP:  27; 6HR MAX TEMP:  32; 6HR PCP: TRACE;

Toronto Canada CLOUDY    45  32  61 W23G31    29.45F

$$




USA.gov is the U.S. government's official web portal to all federal, state and local government web resources and services.